sat.trackr.live / text

‹ back to catalog

STARLINK-11446 [DTC]

NORAD 62416 · 2024-249H

PAYLOAD ACTIVE UNKNOWN

§ Identity

Operator
Country
US
Launch date
2024-12-23
Launch site
AFETR
Launch vehicle
Mass (kg)
RCS (m²)

Purposes: comms

External: N2YO · Heavens-Above · Gunter

§ Orbital elements

Epoch: 2026-05-25T04:02:46.981248Z

Period
91.67 min
Inclination
42.9998°
Eccentricity
0.0001584
Mean motion
15.70909888 rev/d
Perigee alt
355.2 km
Apogee alt
357.4 km
Semi-major
6,734.4 km
B*
2.0814e-3
RAAN
66.2292°
Arg perigee
246.8239°
Mean anomaly
113.2462°
Rev number
8,151

§ Raw data

STARLINK-11446 [DTC]1 62416U 24249H   26145.16859932  .00276511  00000+0  20814-2 0  99992 62416  42.9998  66.2292 0001584 246.8239 113.2462 15.70909888 81510

JSON: /api/v1/satellites/62416 · /tle

For live sub-satellite position, see the globe view (requires WebGL).

§ Visibility from observer

Set your observer location to see the next 7 days of passes ≥ 10°. The values pass through the URL so the page stays shareable.

No JS? Fill the form by hand. The geolocation button needs JavaScript.